Location: ???????
(55.4362°N, 38.1183°E)
Time: 12:57:48
(UTC+00:00)

Cosmos 2278 Rocket - Visible Passes

Search period start: 23 October 2021 00:00
Search period end: 02 November 2021 00:00
Orbit: 840 x 847 km, 71.0° (Epoch: 22 October)

Date Brightness Start Highest point End Pass type
(mag) Time Alt. Az. Time Alt. Az. Time Alt. Az.
23 Oct 2.9 16:18:26 10° NNW 16:23:43 37° NE 16:25:00 33° ENE visible
23 Oct 3.0 18:02:33 10° NW 18:06:51 49° WNW 18:06:51 49° WNW visible
23 Oct 5.0 19:48:22 10° WNW 19:48:42 11° WNW 19:48:42 11° WNW visible
24 Oct 2.9 16:03:51 10° NNW 16:09:06 37° NE 16:10:52 30° ENE visible
24 Oct 2.7 17:47:57 10° NW 17:52:43 57° WNW 17:52:43 57° WNW visible
24 Oct 4.9 19:33:40 10° WNW 19:34:34 12° WNW 19:34:34 12° WNW visible
25 Oct 2.9 15:49:15 10° NNW 15:54:30 36° NE 15:56:46 26° E visible
25 Oct 2.4 17:33:22 10° NW 17:38:37 66° W 17:38:37 66° W visible
25 Oct 4.8 19:18:58 10° WNW 19:20:29 14° WNW 19:20:29 14° WNW visible
26 Oct 2.9 15:34:40 10° NNW 15:39:52 35° NE 15:42:43 22° E visible
26 Oct 2.3 17:18:46 10° NW 17:24:26 71° WSW 17:24:35 70° SW visible
26 Oct 4.7 19:04:17 10° WNW 19:06:26 15° W 19:06:26 15° W visible
27 Oct 3.0 15:20:05 10° NNW 15:25:15 34° NE 15:28:44 18° E visible
27 Oct 2.3 17:04:10 10° NW 17:09:51 73° WSW 17:10:35 64° S visible
27 Oct 4.5 18:49:36 10° WNW 18:52:27 16° W 18:52:27 16° W visible
28 Oct 3.0 15:05:29 10° NNW 15:10:38 34° NE 15:14:49 14° E visible
28 Oct 2.3 16:49:34 10° NW 16:55:15 75° WSW 16:56:41 51° S visible
28 Oct 4.5 18:34:55 10° WNW 18:38:27 17° W 18:38:34 17° W visible
29 Oct 3.0 14:50:54 10° NNW 14:56:01 33° NE 15:01:00 10° E visible
29 Oct 2.2 16:34:58 10° NW 16:40:41 78° WSW 16:42:52 39° SSE visible
29 Oct 4.4 18:20:15 10° WNW 18:23:53 18° W 18:24:45 17° WSW visible
30 Oct 3.0 14:36:19 10° NNW 14:41:24 32° NE 14:46:27 10° E visible
30 Oct 2.2 16:20:23 10° NW 16:26:05 80° WSW 16:29:10 28° SSE visible
30 Oct 4.4 18:05:35 10° WNW 18:09:20 18° W 18:11:04 16° WSW visible
31 Oct 3.0 14:21:43 10° NNW 14:26:47 31° NE 14:31:48 10° E visible
31 Oct 2.2 16:05:47 10° NW 16:11:30 82° WSW 16:15:38 19° SSE visible
31 Oct 4.5 17:50:56 10° WNW 17:54:47 19° W 17:57:32 14° SW visible
01 Nov 2.2 15:51:11 10° NW 15:56:54 85° WSW 16:02:18 11° SSE visible
01 Nov 4.5 17:36:16 10° NW 17:40:13 20° W 17:44:09 10° SW visible
